Darstellungsparameter: Aktuell verwendete Einstellungen:
Skalierung der Graphiken ... ?
xyx+y,   Skalierungsfaktor:      Skalierung: Modus: x, Faktor: 1
Darstellungszeitraum ... ?
Vom - - bis: - -   Zeitraum: 09.10.2010 - 13.10.2010
Min/Max/Avg-Anzeige ... ?
Zeige MMA aktuell
Zeige MMA Monat
Zeige MMA alles
Zeige --A aktuell
Zeige --A Monat
Zeige --A alles
Keine MMA-Anzeige
MMA:
Average (ber die Originaldaten)
MMA-Basis: 09.10.2010 - 13.10.2010
Quicknavigation für Darstellung... ?
Tage:      1T, 2T, 3T, 5T -1T -2T -3T -5T +1T +2T +3T +5T
Wochen: 1W, 2W, 3W -1W -2W -3W +1W +2W +3W
Monate: 1M, 3M, 6M -1M -3M -6M +1M +3M +6M
Jahre:    1J, 3J, 5J, 10J -1J -3J -5J -10J +1J +3J +5J +10J
Nutze für die Darstellung ... ?
Originaldaten oder Mittelwerte auf ...
Stundenbasis Tagesbasis Wochenbasis
Monatsbasis Jahresbasis      Datenbasis: Original-Daten
Darstellen als:
Statistik (Auto) Statistik J:M      Darstellung:
Zur Graphik,    zurück zur Übersicht aller Sensoren.
 
Tabellarische Datenbersicht: ?
 
Sensor: Nr:Datum:Temp:Abs-Feuchte:Windchill:Wind:
Aussen-T/F 1 09-10-2010 00:09:02 12.1 C 9.12 g/m*3 12.1 C 0 km/h
2 09-10-2010 00:21:03 12 C 9.06 g/m*3 12 C 0 km/h
3 09-10-2010 00:33:03 11.9 C 9.11 g/m*3 11.9 C 0 km/h
4 09-10-2010 00:45:03 11.7 C 9.1 g/m*3 11.7 C 0 km/h
5 09-10-2010 00:57:03 11.8 C 9.16 g/m*3 11.8 C 0 km/h
6 09-10-2010 01:09:03 11.5 C 8.99 g/m*3 11.5 C 0 km/h
7 09-10-2010 01:21:03 11.5 C 8.99 g/m*3 11.5 C 0 km/h
8 09-10-2010 01:33:03 11.4 C 9.03 g/m*3 11.4 C 0 km/h
9 09-10-2010 01:45:03 11.2 C 8.92 g/m*3 11.2 C 0 km/h
10 09-10-2010 01:57:03 11.1 C 8.86 g/m*3 11.1 C 0 km/h
11 09-10-2010 02:09:03 11 C 8.81 g/m*3 11 C 0 km/h
12 09-10-2010 02:21:03 10.9 C 8.85 g/m*3 10.9 C 0 km/h
13 09-10-2010 02:33:03 10.7 C 8.64 g/m*3 10.7 C 0 km/h
14 09-10-2010 02:45:03 10.6 C 8.59 g/m*3 10.6 C 0 km/h
15 09-10-2010 02:57:03 10.5 C 8.53 g/m*3 10.5 C 0 km/h
16 09-10-2010 03:09:03 10.4 C 8.48 g/m*3 10.4 C 0 km/h
17 09-10-2010 03:21:03 10.3 C 8.43 g/m*3 10.3 C 0 km/h
18 09-10-2010 03:33:03 10.2 C 8.37 g/m*3 10.2 C 0 km/h
19 09-10-2010 03:45:03 10.2 C 8.47 g/m*3 10.2 C 0 km/h
20 09-10-2010 03:57:03 10.1 C 8.42 g/m*3 10.1 C 0 km/h
21 09-10-2010 04:09:03 10 C 8.36 g/m*3 10 C 0 km/h
22 09-10-2010 04:21:03 9.8 C 8.35 g/m*3 9.8 C 0 km/h
23 09-10-2010 04:33:04 9.8 C 8.35 g/m*3 9.8 C 0 km/h
24 09-10-2010 04:45:04 9.7 C 8.3 g/m*3 9.7 C 0 km/h
25 09-10-2010 04:57:04 9.6 C 8.24 g/m*3 9.6 C 0 km/h
Sensor: Nr:Datum:Temp:Abs-Feuchte:Windchill:Wind:
Aussen-T/F 26 09-10-2010 05:09:04 9.6 C 8.34 g/m*3 9.6 C 0 km/h
27 09-10-2010 05:21:04 9.5 C 8.28 g/m*3 9.5 C 0 km/h
28 09-10-2010 05:33:04 9.4 C 8.23 g/m*3 9.4 C 0 km/h
29 09-10-2010 05:45:04 9.5 C 8.28 g/m*3 9.5 C 0 km/h
30 09-10-2010 05:57:04 9.6 C 8.34 g/m*3 9.6 C 0 km/h
31 09-10-2010 06:09:04 9.6 C 8.34 g/m*3 9.6 C 0 km/h
32 09-10-2010 06:21:04 9.5 C 8.37 g/m*3 9.5 C 0 km/h
33 09-10-2010 06:33:04 9.4 C 8.32 g/m*3 9.4 C 0 km/h
34 09-10-2010 06:45:04 9.3 C 8.27 g/m*3 9.3 C 0 km/h
35 09-10-2010 06:57:04 9.3 C 8.27 g/m*3 9.3 C 0 km/h
36 09-10-2010 07:09:04 9.3 C 8.27 g/m*3 9.3 C 0 km/h
37 09-10-2010 07:21:04 9.2 C 8.22 g/m*3 9.2 C 0 km/h
38 09-10-2010 07:33:04 9.1 C 8.16 g/m*3 9.1 C 0 km/h
39 09-10-2010 07:45:04 9.2 C 8.22 g/m*3 9.2 C 0 km/h
40 09-10-2010 07:57:04 9.4 C 8.32 g/m*3 9.4 C 0 km/h
41 09-10-2010 08:09:04 9.2 C 8.22 g/m*3 9.2 C 0 km/h
42 09-10-2010 08:21:04 9.2 C 8.22 g/m*3 9.2 C 0 km/h
43 09-10-2010 08:33:02 9.2 C 8.22 g/m*3 9.2 C 0 km/h
44 09-10-2010 08:45:02 9.2 C 8.22 g/m*3 9.2 C 0 km/h
45 09-10-2010 08:57:02 9.2 C 8.22 g/m*3 9.2 C 0 km/h
46 09-10-2010 09:09:02 9.2 C 8.22 g/m*3 9.2 C 0 km/h
47 09-10-2010 09:21:02 9.2 C 8.22 g/m*3 9.2 C 0 km/h
48 09-10-2010 09:33:02 9.2 C 8.13 g/m*3 9.2 C 0 km/h
49 09-10-2010 09:45:02 9.3 C 8.27 g/m*3 9.3 C 0 km/h
50 09-10-2010 09:57:02 9.5 C 8.37 g/m*3 9.5 C 0 km/h
Sensor: Nr:Datum:Temp:Abs-Feuchte:Windchill:Wind:
Aussen-T/F 51 09-10-2010 10:09:02 9.7 C 8.48 g/m*3 9.7 C 0 km/h
52 09-10-2010 10:21:01 10 C 8.55 g/m*3 10 C 0 km/h
53 09-10-2010 10:33:02 10.5 C 8.92 g/m*3 10.5 C 0 km/h
54 09-10-2010 10:45:02 10.8 C 9.09 g/m*3 10.8 C 0 km/h
55 09-10-2010 10:57:02 11.2 C 9.33 g/m*3 11.2 C 0 km/h
56 09-10-2010 11:09:02 11.7 C 9.62 g/m*3 11.7 C 0 km/h
57 09-10-2010 11:21:02 12.1 C 9.65 g/m*3 12.1 C 0 km/h
58 09-10-2010 11:33:02 12.5 C 9.68 g/m*3 12.5 C 0 km/h
59 09-10-2010 11:45:02 12.9 C 9.47 g/m*3 12.9 C 0 km/h
60 09-10-2010 11:57:02 13.4 C 9.18 g/m*3 13.4 C 0 km/h
61 09-10-2010 12:09:02 13.7 C 8.76 g/m*3 13.7 C 0 km/h
62 09-10-2010 12:21:01 14.4 C 8.28 g/m*3 14.4 C 0 km/h
63 09-10-2010 12:33:02 14.7 C 7.81 g/m*3 14.7 C 0 km/h
64 09-10-2010 12:45:01 15.1 C 8.39 g/m*3 15.1 C 0 km/h
65 09-10-2010 12:57:01 15.5 C 7.67 g/m*3 15.5 C 0 km/h
66 09-10-2010 13:09:02 16.1 C 7.95 g/m*3 16.1 C 0 km/h
67 09-10-2010 13:21:02 16.6 C 8.05 g/m*3 16.6 C 0 km/h
68 09-10-2010 13:33:02 17 C 8.1 g/m*3 17 C 0 km/h
69 09-10-2010 13:45:02 17.6 C 7.8 g/m*3 17.6 C 0 km/h
70 09-10-2010 13:57:02 18.2 C 7.46 g/m*3 18.2 C 0 km/h
71 09-10-2010 14:09:01 19 C 6.84 g/m*3 19 C 0 km/h
72 09-10-2010 14:21:02 19.5 C 7.05 g/m*3 19.5 C 0 km/h
73 09-10-2010 14:33:02 20 C 7.09 g/m*3 20 C 0 km/h
74 09-10-2010 14:45:02 20.4 C 6.72 g/m*3 20.4 C 0 km/h
75 09-10-2010 14:57:02 20.9 C 7.47 g/m*3 20.9 C 0 km/h
Sensor: Nr:Datum:Temp:Abs-Feuchte:Windchill:Wind:
Aussen-T/F 76 09-10-2010 15:09:02 21.4 C 6.75 g/m*3 21.4 C 0 km/h
77 09-10-2010 15:21:02 21.8 C 6.72 g/m*3 21.8 C 0 km/h
78 09-10-2010 15:33:02 21.7 C 5.91 g/m*3 21.7 C 0 km/h
79 09-10-2010 15:45:02 22.1 C 6.25 g/m*3 22.1 C 0 km/h
80 09-10-2010 15:57:02 22.3 C 5.73 g/m*3 22.3 C 0 km/h
81 09-10-2010 16:09:01 22.4 C 6.16 g/m*3 22.4 C 0 km/h
82 09-10-2010 16:21:02 22.4 C 6.16 g/m*3 22.4 C 0 km/h
83 09-10-2010 16:33:02 22.4 C 6.36 g/m*3 22.4 C 0 km/h
84 09-10-2010 16:45:01 22 C 6.21 g/m*3 22 C 0 km/h
85 09-10-2010 16:57:01 21.6 C 6.26 g/m*3 21.6 C 0 km/h
86 09-10-2010 17:09:02 21.3 C 5.96 g/m*3 21.3 C 0 km/h
87 09-10-2010 17:21:01 21.3 C 6.15 g/m*3 21.3 C 0 km/h
88 09-10-2010 17:33:01 21.1 C 6.26 g/m*3 21.1 C 0 km/h
89 09-10-2010 17:45:01 20.6 C 6.26 g/m*3 20.6 C 0 km/h
90 09-10-2010 17:57:01 19.7 C 6.28 g/m*3 19.7 C 0 km/h
91 09-10-2010 18:09:02 19.1 C 6.23 g/m*3 19.1 C 0 km/h
92 09-10-2010 18:21:01 18.2 C 6.22 g/m*3 18.2 C 0 km/h
93 09-10-2010 18:33:01 17 C 6.37 g/m*3 17 C 0 km/h
94 09-10-2010 18:45:01 15.8 C 6.33 g/m*3 15.8 C 0 km/h
95 09-10-2010 18:57:01 15 C 6.03 g/m*3 15 C 0 km/h
96 09-10-2010 19:09:02 14.6 C 6.01 g/m*3 14.6 C 0 km/h
97 09-10-2010 19:21:02 14 C 6.03 g/m*3 14 C 0 km/h
98 09-10-2010 19:33:01 13.8 C 5.96 g/m*3 13.8 C 0 km/h
99 09-10-2010 19:45:02 13.4 C 6.28 g/m*3 13.4 C 0 km/h
100 09-10-2010 19:57:02 13.2 C 6.32 g/m*3 13.2 C 0 km/h
Sensor: Nr:Datum:Temp:Abs-Feuchte:Windchill:Wind:
Aussen-T/F 101 09-10-2010 20:09:01 13 C 6.35 g/m*3 13 C 0 km/h
102 09-10-2010 20:21:02 13.1 C 6.39 g/m*3 13.1 C 0 km/h
103 09-10-2010 20:33:01 13 C 6.46 g/m*3 13 C 0 km/h
104 09-10-2010 20:45:02 12.7 C 6.79 g/m*3 12.7 C 0 km/h
105 09-10-2010 20:57:02 12.4 C 6.88 g/m*3 12.4 C 0 km/h
106 09-10-2010 21:09:02 12 C 6.82 g/m*3 12 C 0 km/h
107 09-10-2010 21:21:02 11.7 C 7.01 g/m*3 11.7 C 0 km/h
108 09-10-2010 21:33:02 11.5 C 7.02 g/m*3 11.5 C 0 km/h
109 09-10-2010 21:45:01 11.2 C 7.1 g/m*3 11.2 C 0 km/h
110 09-10-2010 21:57:01 11 C 7.01 g/m*3 11 C 0 km/h
111 09-10-2010 22:09:01 11 C 7.01 g/m*3 11 C 0 km/h
112 09-10-2010 22:21:02 10.8 C 7.12 g/m*3 10.8 C 0 km/h
113 09-10-2010 22:33:01 10.6 C 7.03 g/m*3 10.6 C 0 km/h
114 09-10-2010 22:46:02 10.4 C 7.04 g/m*3 10.4 C 0 km/h
115 09-10-2010 22:58:02 10.2 C 6.95 g/m*3 10.2 C 0 km/h
116 09-10-2010 23:10:02 10 C 6.86 g/m*3 10 C 0 km/h
117 09-10-2010 23:22:02 9.8 C 6.96 g/m*3 9.8 C 0 km/h
118 09-10-2010 23:34:02 9.7 C 6.91 g/m*3 9.7 C 0 km/h
119 09-10-2010 23:46:02 9.4 C 6.96 g/m*3 9.4 C 0 km/h
120 09-10-2010 23:58:02 9.2 C 6.88 g/m*3 9.2 C 0 km/h
121 10-10-2010 00:10:02 9.1 C 6.92 g/m*3 9.1 C 0 km/h
122 10-10-2010 00:22:02 9.1 C 7.01 g/m*3 9.1 C 0 km/h
123 10-10-2010 00:34:02 9 C 6.96 g/m*3 9 C 0 km/h
124 10-10-2010 00:46:02 8.8 C 7.05 g/m*3 8.8 C 0 km/h
125 10-10-2010 00:58:02 8.7 C 7.01 g/m*3 8.7 C 0 km/h
Sensor: Nr:Datum:Temp:Abs-Feuchte:Windchill:Wind:
Aussen-T/F 126 10-10-2010 01:10:03 8.5 C 6.92 g/m*3 8.5 C 0 km/h
127 10-10-2010 01:22:03 8.5 C 7 g/m*3 8.5 C 0 km/h
128 10-10-2010 01:34:03 8.4 C 6.96 g/m*3 8.4 C 0 km/h
129 10-10-2010 01:46:03 8.3 C 6.91 g/m*3 8.3 C 0 km/h
130 10-10-2010 01:58:03 8.2 C 6.87 g/m*3 8.2 C 0 km/h
131 10-10-2010 02:10:03 8 C 6.86 g/m*3 8 C 0 km/h
132 10-10-2010 02:22:03 7.9 C 6.9 g/m*3 7.9 C 0 km/h
133 10-10-2010 02:34:03 7.9 C 6.9 g/m*3 7.9 C 0 km/h
134 10-10-2010 02:46:03 7.6 C 6.77 g/m*3 7.6 C 0 km/h
135 10-10-2010 02:58:03 7.4 C 6.68 g/m*3 7.4 C 0 km/h
136 10-10-2010 03:10:03 7.5 C 6.8 g/m*3 7.5 C 0 km/h
137 10-10-2010 03:22:03 7.2 C 6.67 g/m*3 7.2 C 0 km/h
138 10-10-2010 03:34:03 7.1 C 6.63 g/m*3 7.1 C 0 km/h
139 10-10-2010 03:46:03 7 C 6.59 g/m*3 7 C 0 km/h
140 10-10-2010 03:58:03 6.9 C 6.62 g/m*3 6.9 C 0 km/h
141 10-10-2010 04:10:03 7 C 6.59 g/m*3 7 C 0 km/h
142 10-10-2010 04:22:03 6.8 C 6.65 g/m*3 6.8 C 0 km/h
143 10-10-2010 04:34:03 6.7 C 6.61 g/m*3 6.7 C 0 km/h
144 10-10-2010 04:46:03 6.7 C 6.61 g/m*3 6.7 C 0 km/h
145 10-10-2010 04:58:03 6.6 C 6.57 g/m*3 6.6 C 0 km/h
146 10-10-2010 05:10:03 6.5 C 6.52 g/m*3 6.5 C 0 km/h
147 10-10-2010 05:22:03 6.4 C 6.48 g/m*3 6.4 C 0 km/h
148 10-10-2010 05:34:03 6.2 C 6.4 g/m*3 6.2 C 0 km/h
149 10-10-2010 05:46:04 6.2 C 6.4 g/m*3 6.2 C 0 km/h
150 10-10-2010 05:58:04 6.1 C 6.43 g/m*3 6.1 C 0 km/h
Sensor: Nr:Datum:Temp:Abs-Feuchte:Windchill:Wind:
Aussen-T/F 151 10-10-2010 06:10:04 5.9 C 6.35 g/m*3 5.9 C 0 km/h
152 10-10-2010 06:22:04 6 C 6.39 g/m*3 6 C 0 km/h
153 10-10-2010 06:34:04 6 C 6.39 g/m*3 6 C 0 km/h
154 10-10-2010 06:46:04 5.8 C 6.38 g/m*3 5.8 C 0 km/h
155 10-10-2010 06:58:04 5.6 C 6.29 g/m*3 5.6 C 0 km/h
156 10-10-2010 07:10:02 5.5 C 6.25 g/m*3 5.5 C 0 km/h
157 10-10-2010 07:22:03 5.6 C 6.29 g/m*3 5.6 C 0 km/h
158 10-10-2010 07:34:02 5.4 C 6.28 g/m*3 5.4 C 0 km/h
159 10-10-2010 07:46:02 5.4 C 6.28 g/m*3 5.4 C 0 km/h
160 10-10-2010 07:58:02 5.6 C 6.43 g/m*3 5.6 C 0 km/h
161 10-10-2010 08:10:01 6 C 6.53 g/m*3 6 C 0 km/h
162 10-10-2010 08:22:01 6.2 C 6.62 g/m*3 6.2 C 0 km/h
163 10-10-2010 08:34:01 6.4 C 6.71 g/m*3 6.4 C 0 km/h
164 10-10-2010 08:46:01 6.5 C 6.75 g/m*3 6.5 C 0 km/h
165 10-10-2010 08:58:01 6.7 C 6.84 g/m*3 6.7 C 0 km/h
166 10-10-2010 09:10:02 7 C 6.82 g/m*3 7 C 0 km/h
167 10-10-2010 09:22:01 6.9 C 6.85 g/m*3 6.9 C 0 km/h
168 10-10-2010 09:34:01 7.1 C 6.79 g/m*3 7.1 C 0 km/h
169 10-10-2010 09:46:01 7.5 C 6.8 g/m*3 7.5 C 0 km/h
170 10-10-2010 09:58:01 7.8 C 6.69 g/m*3 7.8 C 0 km/h
171 10-10-2010 10:10:01 8.1 C 6.49 g/m*3 8.1 C 0 km/h
172 10-10-2010 10:22:02 8.4 C 6.45 g/m*3 8.4 C 0 km/h
173 10-10-2010 10:34:01 8.8 C 6.7 g/m*3 8.8 C 0 km/h
174 10-10-2010 10:46:03 9.5 C 6.74 g/m*3 9.5 C 0 km/h
175 10-10-2010 10:58:03 9.8 C 6.59 g/m*3 9.8 C 0 km/h
Sensor: Nr:Datum:Temp:Abs-Feuchte:Windchill:Wind:
Aussen-T/F 176 10-10-2010 11:10:02 10.2 C 6.47 g/m*3 10.2 C 0 km/h
177 10-10-2010 11:22:02 10.3 C 6.7 g/m*3 10.3 C 0 km/h
178 10-10-2010 11:34:02 10.8 C 6.72 g/m*3 10.8 C 0 km/h
179 10-10-2010 11:46:02 11.5 C 6.51 g/m*3 11.5 C 0 km/h
180 10-10-2010 11:58:03 11.8 C 6.42 g/m*3 11.8 C 0 km/h
181 10-10-2010 12:10:01 12 C 6.61 g/m*3 12 C 0 km/h
182 10-10-2010 12:22:02 12.3 C 6.73 g/m*3 12.3 C 0 km/h
183 10-10-2010 12:34:02 12.7 C 6.68 g/m*3 12.7 C 0 km/h
184 10-10-2010 12:46:02 13.2 C 6.2 g/m*3 13.2 C 0 km/h
185 10-10-2010 12:58:02 13.8 C 6.08 g/m*3 13.8 C 0 km/h
186 10-10-2010 13:10:03 14.4 C 5.69 g/m*3 14.4 C 0 km/h
187 10-10-2010 13:22:02 15.2 C 5.58 g/m*3 15.2 C 0 km/h
188 10-10-2010 13:34:02 16 C 5.86 g/m*3 16 C 0 km/h
189 10-10-2010 13:46:01 16.5 C 5.76 g/m*3 16.5 C 0 km/h
190 10-10-2010 13:58:01 17.2 C 5.42 g/m*3 17.2 C 0 km/h
191 10-10-2010 14:10:02 17.8 C 5.01 g/m*3 17.8 C 0 km/h
192 10-10-2010 14:22:01 18.3 C 5.16 g/m*3 18.3 C 0 km/h
193 10-10-2010 14:34:01 18.7 C 5.76 g/m*3 18.7 C 0 km/h
194 10-10-2010 14:46:01 19 C 5.7 g/m*3 19 C 0 km/h
195 10-10-2010 14:58:01 19.3 C 5.64 g/m*3 19.3 C 0 km/h
196 10-10-2010 15:10:01 19.6 C 5.91 g/m*3 19.6 C 0 km/h
197 10-10-2010 15:22:02 20 C 6.05 g/m*3 20 C 0 km/h
198 10-10-2010 15:34:01 20.4 C 6.01 g/m*3 20.4 C 0 km/h
199 10-10-2010 15:46:02 20.9 C 6.37 g/m*3 20.9 C 0 km/h
200 10-10-2010 15:58:02 21.1 C 5.16 g/m*3 21.1 C 0 km/h
Sensor: Nr:Datum:Temp:Abs-Feuchte:Windchill:Wind:
Aussen-T/F 201 10-10-2010 16:10:01 21.1 C 5.71 g/m*3 21.1 C 0 km/h
202 10-10-2010 16:22:02 21.4 C 5.81 g/m*3 21.4 C 0 km/h
203 10-10-2010 16:34:01 21.3 C 5.78 g/m*3 21.3 C 0 km/h
204 10-10-2010 16:46:02 21.3 C 5.59 g/m*3 21.3 C 0 km/h
205 10-10-2010 16:58:02 21.3 C 5.59 g/m*3 21.3 C 0 km/h
206 10-10-2010 17:10:02 21.2 C 5.56 g/m*3 21.2 C 0 km/h
207 10-10-2010 17:22:02 21 C 5.86 g/m*3 21 C 0 km/h
208 10-10-2010 17:34:02 20.8 C 5.79 g/m*3 20.8 C 0 km/h
209 10-10-2010 17:46:01 20.4 C 5.48 g/m*3 20.4 C 0 km/h
210 10-10-2010 17:58:01 19.8 C 5.3 g/m*3 19.8 C 0 km/h
211 10-10-2010 18:10:02 19.1 C 5.41 g/m*3 19.1 C 0 km/h
212 10-10-2010 18:22:01 18.3 C 5.32 g/m*3 18.3 C 0 km/h
213 10-10-2010 18:34:02 17.1 C 5.24 g/m*3 17.1 C 0 km/h
214 10-10-2010 18:46:01 16.2 C 5.65 g/m*3 16.2 C 0 km/h
215 10-10-2010 18:58:01 15.3 C 5.48 g/m*3 15.3 C 0 km/h
216 10-10-2010 19:10:02 14.8 C 5.57 g/m*3 14.8 C 0 km/h
217 10-10-2010 19:22:01 14.5 C 5.35 g/m*3 14.5 C 0 km/h
218 10-10-2010 19:34:02 14.2 C 5.62 g/m*3 14.2 C 0 km/h
219 10-10-2010 19:46:01 13.7 C 5.68 g/m*3 13.7 C 0 km/h
220 10-10-2010 19:58:01 13.7 C 5.21 g/m*3 13.7 C 0 km/h
221 10-10-2010 20:10:02 13.4 C 5.23 g/m*3 13.4 C 0 km/h
222 10-10-2010 20:22:02 13 C 5.22 g/m*3 13 C 0 km/h
223 10-10-2010 20:34:01 13 C 4.99 g/m*3 13 C 0 km/h
224 10-10-2010 20:46:02 12.8 C 4.7 g/m*3 12.8 C 0 km/h
225 10-10-2010 20:58:02 12.9 C 4.4 g/m*3 12.9 C 0 km/h
Sensor: Nr:Datum:Temp:Abs-Feuchte:Windchill:Wind:
Aussen-T/F 226 10-10-2010 21:10:01 12.7 C 4.23 g/m*3 12.7 C 0 km/h
227 10-10-2010 21:22:02 12.6 C 4.09 g/m*3 12.6 C 0 km/h
228 10-10-2010 21:34:01 12.5 C 3.85 g/m*3 12.5 C 0 km/h
229 10-10-2010 21:46:02 12.4 C 3.93 g/m*3 12.4 C 0 km/h
230 10-10-2010 21:58:03 12 C 3.94 g/m*3 12 C 0 km/h
231 10-10-2010 22:11:02 11.8 C 3.89 g/m*3 11.8 C 0 km/h
232 10-10-2010 22:23:03 11.6 C 4.16 g/m*3 11.6 C 0 km/h
233 10-10-2010 22:35:03 11.4 C 4.11 g/m*3 11.4 C 0 km/h
234 10-10-2010 22:47:03 11.3 C 4.18 g/m*3 11.3 C 0 km/h
235 10-10-2010 22:59:03 11.2 C 4.26 g/m*3 11.2 C 0 km/h
236 10-10-2010 23:11:03 11.1 C 4.33 g/m*3 11.1 C 0 km/h
237 10-10-2010 23:23:03 10.9 C 4.48 g/m*3 10.9 C 0 km/h
238 10-10-2010 23:35:03 10.7 C 4.52 g/m*3 10.7 C 0 km/h
239 10-10-2010 23:47:03 10.6 C 4.59 g/m*3 10.6 C 0 km/h
240 10-10-2010 23:59:03 10.3 C 4.69 g/m*3 10.3 C 0 km/h
241 11-10-2010 00:11:03 10.2 C 4.85 g/m*3 10.2 C 0 km/h
242 11-10-2010 00:23:03 10 C 4.89 g/m*3 10 C 0 km/h
243 11-10-2010 00:35:03 9.9 C 4.95 g/m*3 9.9 C 0 km/h
244 11-10-2010 00:47:03 10 C 4.79 g/m*3 10 C 0 km/h
245 11-10-2010 00:59:03 9.8 C 4.92 g/m*3 9.8 C 0 km/h
246 11-10-2010 01:11:03 9.6 C 4.95 g/m*3 9.6 C 0 km/h
247 11-10-2010 01:23:03 9.5 C 4.92 g/m*3 9.5 C 0 km/h
248 11-10-2010 01:35:03 9.4 C 4.88 g/m*3 9.4 C 0 km/h
249 11-10-2010 01:47:03 9.3 C 4.94 g/m*3 9.3 C 0 km/h
250 11-10-2010 01:59:03 9.4 C 4.88 g/m*3 9.4 C 0 km/h
Sensor: Nr:Datum:Temp:Abs-Feuchte:Windchill:Wind:
Aussen-T/F 251 11-10-2010 02:11:03 9.4 C 4.79 g/m*3 9.4 C 0 km/h
252 11-10-2010 02:23:03 9.4 C 4.88 g/m*3 9.4 C 0 km/h
253 11-10-2010 02:35:03 9 C 4.85 g/m*3 9 C 0 km/h
254 11-10-2010 02:47:04 8.9 C 4.91 g/m*3 8.9 C 0 km/h
255 11-10-2010 02:59:04 8.7 C 4.93 g/m*3 8.7 C 0 km/h
256 11-10-2010 03:11:04 8.5 C 4.95 g/m*3 8.5 C 0 km/h
257 11-10-2010 03:23:04 8.3 C 4.97 g/m*3 8.3 C 0 km/h
258 11-10-2010 03:35:04 8.2 C 5.02 g/m*3 8.2 C 0 km/h
259 11-10-2010 03:47:04 8.1 C 4.99 g/m*3 8.1 C 0 km/h
260 11-10-2010 03:59:04 8.1 C 4.99 g/m*3 8.1 C 0 km/h
261 11-10-2010 04:11:04 7.7 C 5.03 g/m*3 7.7 C 0 km/h
262 11-10-2010 04:23:04 7.5 C 5.12 g/m*3 7.5 C 0 km/h
263 11-10-2010 04:35:04 7.5 C 5.12 g/m*3 7.5 C 0 km/h
264 11-10-2010 04:47:04 7.6 C 5.16 g/m*3 7.6 C 0 km/h
265 11-10-2010 04:59:04 7.6 C 5.08 g/m*3 7.6 C 0 km/h
266 11-10-2010 05:11:04 7.1 C 5.07 g/m*3 7.1 C 0 km/h
267 11-10-2010 05:23:04 7 C 5.27 g/m*3 7 C 0 km/h
268 11-10-2010 05:35:04 6.6 C 5.28 g/m*3 6.6 C 0 km/h
269 11-10-2010 05:47:04 6.3 C 5.26 g/m*3 6.3 C 0 km/h
270 11-10-2010 05:59:04 6.2 C 5.29 g/m*3 6.2 C 0 km/h
271 11-10-2010 06:11:04 6 C 5.23 g/m*3 6 C 0 km/h
272 11-10-2010 06:23:04 5.8 C 5.23 g/m*3 5.8 C 0 km/h
273 11-10-2010 06:35:04 5.7 C 5.34 g/m*3 5.7 C 0 km/h
274 11-10-2010 06:47:04 5.6 C 5.37 g/m*3 5.6 C 0 km/h
275 11-10-2010 06:59:05 5.5 C 5.41 g/m*3 5.5 C 0 km/h
Sensor: Nr:Datum:Temp:Abs-Feuchte:Windchill:Wind:
Aussen-T/F 276 11-10-2010 07:11:02 5.4 C 5.37 g/m*3 5.4 C 0 km/h
277 11-10-2010 07:23:02 5.3 C 5.41 g/m*3 5.3 C 0 km/h
278 11-10-2010 07:35:03 5.3 C 5.41 g/m*3 5.3 C 0 km/h
279 11-10-2010 07:47:02 5.1 C 5.34 g/m*3 5.1 C 0 km/h
280 11-10-2010 07:59:02 5 C 5.3 g/m*3 5 C 0 km/h
281 11-10-2010 08:11:02 4.9 C 5.33 g/m*3 4.9 C 0 km/h
282 11-10-2010 08:23:02 4.9 C 5.4 g/m*3 4.9 C 0 km/h
283 11-10-2010 08:35:02 5 C 5.37 g/m*3 5 C 0 km/h
284 11-10-2010 08:47:02 5 C 5.44 g/m*3 5 C 0 km/h
285 11-10-2010 08:59:02 5 C 5.44 g/m*3 5 C 0 km/h
286 11-10-2010 09:11:02 5.3 C 5.61 g/m*3 5.3 C 0 km/h
287 11-10-2010 09:23:02 5.4 C 5.65 g/m*3 5.4 C 0 km/h
288 11-10-2010 09:35:02 5.6 C 5.73 g/m*3 5.6 C 0 km/h
289 11-10-2010 09:47:01 5.8 C 5.73 g/m*3 5.8 C 0 km/h
290 11-10-2010 09:59:01 5.9 C 5.77 g/m*3 5.9 C 0 km/h
291 11-10-2010 10:11:01 6.1 C 5.77 g/m*3 6.1 C 0 km/h
292 11-10-2010 10:23:01 6.5 C 6 g/m*3 6.5 C 0 km/h
293 11-10-2010 10:35:01 7.1 C 6.16 g/m*3 7.1 C 0 km/h
294 11-10-2010 10:47:02 7.7 C 6.32 g/m*3 7.7 C 0 km/h
295 11-10-2010 10:59:02 8.2 C 6.28 g/m*3 8.2 C 0 km/h
296 11-10-2010 11:11:02 8.7 C 6.31 g/m*3 8.7 C 0 km/h
297 11-10-2010 11:23:03 9 C 6.26 g/m*3 9 C 0 km/h
298 11-10-2010 11:35:02 9.4 C 6.33 g/m*3 9.4 C 0 km/h
299 11-10-2010 11:47:01 9.9 C 6.44 g/m*3 9.9 C 0 km/h
300 11-10-2010 11:59:01 10.3 C 6.42 g/m*3 10.3 C 0 km/h
Sensor: Nr:Datum:Temp:Abs-Feuchte:Windchill:Wind:
Aussen-T/F 301 11-10-2010 12:11:02 10.7 C 6.38 g/m*3 10.7 C 0 km/h
302 11-10-2010 12:23:01 11.3 C 6.43 g/m*3 11.3 C 0 km/h
303 11-10-2010 12:35:01 11.6 C 6.44 g/m*3 11.6 C 0 km/h
304 11-10-2010 12:47:01 12 C 6.39 g/m*3 12 C 0 km/h
305 11-10-2010 12:59:01 12.5 C 6.6 g/m*3 12.5 C 0 km/h
306 11-10-2010 13:11:01 13.8 C 6.2 g/m*3 13.8 C 0 km/h
307 11-10-2010 13:23:02 14.5 C 6.09 g/m*3 14.5 C 0 km/h
308 11-10-2010 13:35:01 14.9 C 5.99 g/m*3 14.9 C 0 km/h
309 11-10-2010 13:47:02 15.4 C 5.65 g/m*3 15.4 C 0 km/h
310 11-10-2010 13:59:02 16 C 5.45 g/m*3 16 C 0 km/h
311 11-10-2010 14:11:02 16.7 C 4.97 g/m*3 16.7 C 0 km/h
312 11-10-2010 14:23:02 17.1 C 5.82 g/m*3 17.1 C 0 km/h
313 11-10-2010 14:35:01 17.4 C 5.48 g/m*3 17.4 C 0 km/h
314 11-10-2010 14:47:01 17.9 C 5.5 g/m*3 17.9 C 0 km/h
315 11-10-2010 14:59:02 18.3 C 5.47 g/m*3 18.3 C 0 km/h
316 11-10-2010 15:11:01 18.8 C 5.31 g/m*3 18.8 C 0 km/h
317 11-10-2010 15:23:01 19.4 C 5.51 g/m*3 19.4 C 0 km/h
318 11-10-2010 15:35:01 19.8 C 5.12 g/m*3 19.8 C 0 km/h
319 11-10-2010 15:47:01 20.3 C 4.57 g/m*3 20.3 C 0 km/h
320 11-10-2010 15:59:01 20.6 C 4.65 g/m*3 20.6 C 0 km/h
321 11-10-2010 16:11:02 20.8 C 4.71 g/m*3 20.8 C 0 km/h
322 11-10-2010 16:23:01 21.1 C 4.97 g/m*3 21.1 C 0 km/h
323 11-10-2010 16:35:01 21.2 C 4.63 g/m*3 21.2 C 0 km/h
324 11-10-2010 16:47:01 21 C 4.58 g/m*3 21 C 0 km/h
325 11-10-2010 16:59:01 20.7 C 4.14 g/m*3 20.7 C 0 km/h
Sensor: Nr:Datum:Temp:Abs-Feuchte:Windchill:Wind:
Aussen-T/F 326 11-10-2010 17:11:02 20.5 C 3.74 g/m*3 20.5 C 0 km/h
327 11-10-2010 17:23:01 20 C 3.63 g/m*3 20 C 0 km/h
328 11-10-2010 17:35:01 19.5 C 3.36 g/m*3 19.5 C 0 km/h
329 11-10-2010 17:47:01 19.1 C 3.44 g/m*3 19.1 C 0 km/h
330 11-10-2010 17:59:01 18.7 C 3.84 g/m*3 18.7 C 0 km/h
331 11-10-2010 18:11:01 18 C 4.45 g/m*3 18 C 0 km/h
332 11-10-2010 18:23:02 16.9 C 4.31 g/m*3 16.9 C 0 km/h
333 11-10-2010 18:35:01 15.7 C 3.88 g/m*3 15.7 C 0 km/h
334 11-10-2010 18:47:03 15.1 C 3.61 g/m*3 15.1 C 0 km/h
335 11-10-2010 18:59:03 14.9 C 3.7 g/m*3 14.9 C 0 km/h
336 11-10-2010 19:11:02 14.4 C 3.71 g/m*3 14.4 C 0 km/h
337 11-10-2010 19:23:02 13.7 C 4.14 g/m*3 13.7 C 0 km/h
338 11-10-2010 19:35:02 13.2 C 4.48 g/m*3 13.2 C 0 km/h
339 11-10-2010 19:47:02 12.5 C 4.51 g/m*3 12.5 C 0 km/h
340 11-10-2010 19:59:03 12.1 C 4.72 g/m*3 12.1 C 0 km/h
341 11-10-2010 20:11:02 11.9 C 4.77 g/m*3 11.9 C 0 km/h
342 11-10-2010 20:23:02 11.8 C 4.84 g/m*3 11.8 C 0 km/h
343 11-10-2010 20:35:02 11.3 C 4.79 g/m*3 11.3 C 0 km/h
344 11-10-2010 20:47:01 11 C 4.7 g/m*3 11 C 0 km/h
345 11-10-2010 20:59:01 10.6 C 4.98 g/m*3 10.6 C 0 km/h
346 11-10-2010 21:11:02 10.3 C 5.08 g/m*3 10.3 C 0 km/h
347 11-10-2010 21:23:01 10.1 C 4.82 g/m*3 10.1 C 0 km/h
348 11-10-2010 21:35:02 9.9 C 4.95 g/m*3 9.9 C 0 km/h
349 11-10-2010 21:48:03 9.8 C 5.01 g/m*3 9.8 C 0 km/h
350 11-10-2010 22:00:03 9.6 C 4.95 g/m*3 9.6 C 0 km/h
Sensor: Nr:Datum:Temp:Abs-Feuchte:Windchill:Wind:
Aussen-T/F 351 11-10-2010 22:12:03 9.4 C 4.88 g/m*3 9.4 C 0 km/h
352 11-10-2010 22:24:03 9.3 C 4.76 g/m*3 9.3 C 0 km/h
353 11-10-2010 22:36:03 8.9 C 4.82 g/m*3 8.9 C 0 km/h
354 11-10-2010 22:48:03 8.8 C 4.79 g/m*3 8.8 C 0 km/h
355 11-10-2010 23:00:03 8.7 C 5.02 g/m*3 8.7 C 0 km/h
356 11-10-2010 23:12:04 8.4 C 4.84 g/m*3 8.4 C 0 km/h
357 11-10-2010 23:24:04 8.2 C 4.86 g/m*3 8.2 C 0 km/h
358 11-10-2010 23:36:04 8.1 C 4.83 g/m*3 8.1 C 0 km/h
359 11-10-2010 23:48:04 7.8 C 4.82 g/m*3 7.8 C 0 km/h
360 12-10-2010 00:00:04 7.4 C 4.93 g/m*3 7.4 C 0 km/h
361 12-10-2010 00:12:04 7.3 C 4.98 g/m*3 7.3 C 0 km/h
362 12-10-2010 00:24:04 7.2 C 4.95 g/m*3 7.2 C 0 km/h
363 12-10-2010 00:36:04 7.1 C 5.07 g/m*3 7.1 C 0 km/h
364 12-10-2010 00:48:04 6.8 C 5.12 g/m*3 6.8 C 0 km/h
365 12-10-2010 01:00:04 6.7 C 5.09 g/m*3 6.7 C 0 km/h
366 12-10-2010 01:12:04 6.5 C 5.1 g/m*3 6.5 C 0 km/h
367 12-10-2010 01:24:04 6.4 C 5.14 g/m*3 6.4 C 0 km/h
368 12-10-2010 01:36:04 6.3 C 5.18 g/m*3 6.3 C 0 km/h
369 12-10-2010 01:48:04 6.1 C 5.11 g/m*3 6.1 C 0 km/h
370 12-10-2010 02:00:04 6 C 5.15 g/m*3 6 C 0 km/h
371 12-10-2010 02:12:04 5.8 C 5.23 g/m*3 5.8 C 0 km/h
372 12-10-2010 02:24:04 5.8 C 5.3 g/m*3 5.8 C 0 km/h
373 12-10-2010 02:36:04 5.6 C 5.23 g/m*3 5.6 C 0 km/h
374 12-10-2010 02:48:04 5.5 C 5.27 g/m*3 5.5 C 0 km/h
375 12-10-2010 03:00:04 5.2 C 5.16 g/m*3 5.2 C 0 km/h
Sensor: Nr:Datum:Temp:Abs-Feuchte:Windchill:Wind:
Aussen-T/F 376 12-10-2010 03:12:04 5.3 C 5.41 g/m*3 5.3 C 0 km/h
377 12-10-2010 03:24:05 5.1 C 5.4 g/m*3 5.1 C 0 km/h
378 12-10-2010 03:36:05 4.9 C 5.33 g/m*3 4.9 C 0 km/h
379 12-10-2010 03:48:05 4.7 C 5.26 g/m*3 4.7 C 0 km/h
380 12-10-2010 04:00:05 4.6 C 5.29 g/m*3 4.6 C 0 km/h
381 12-10-2010 04:12:05 4.4 C 5.22 g/m*3 4.4 C 0 km/h
382 12-10-2010 04:24:05 4.5 C 5.39 g/m*3 4.5 C 0 km/h
383 12-10-2010 04:36:05 4.4 C 5.42 g/m*3 4.4 C 0 km/h
384 12-10-2010 04:48:05 4.2 C 5.35 g/m*3 4.2 C 0 km/h
385 12-10-2010 05:00:05 4.1 C 5.38 g/m*3 4.1 C 0 km/h
386 12-10-2010 05:12:05 4 C 5.34 g/m*3 4 C 0 km/h
387 12-10-2010 05:24:05 3.7 C 5.3 g/m*3 3.7 C 0 km/h
388 12-10-2010 05:36:05 3.6 C 5.26 g/m*3 3.6 C 0 km/h
389 12-10-2010 05:48:05 3.6 C 5.26 g/m*3 3.6 C 0 km/h
390 12-10-2010 06:00:05 3.6 C 5.26 g/m*3 3.6 C 0 km/h
391 12-10-2010 06:12:05 3.5 C 5.29 g/m*3 3.5 C 0 km/h
392 12-10-2010 06:24:05 3.4 C 5.25 g/m*3 3.4 C 0 km/h
393 12-10-2010 06:36:05 3.4 C 5.25 g/m*3 3.4 C 0 km/h
394 12-10-2010 06:48:02 3.4 C 5.25 g/m*3 3.4 C 0 km/h
395 12-10-2010 07:00:02 3.2 C 5.18 g/m*3 3.2 C 0 km/h
396 12-10-2010 07:12:03 3.1 C 5.15 g/m*3 3.1 C 0 km/h
397 12-10-2010 07:24:02 3 C 5.17 g/m*3 3 C 0 km/h
398 12-10-2010 07:36:02 2.8 C 5.16 g/m*3 2.8 C 0 km/h
399 12-10-2010 07:48:01 2.6 C 5.09 g/m*3 2.6 C 0 km/h
400 12-10-2010 08:00:01 2.7 C 5.13 g/m*3 2.7 C 0 km/h
Sensor: Nr:Datum:Temp:Abs-Feuchte:Windchill:Wind:
Aussen-T/F 401 12-10-2010 08:12:02 3.2 C 5.36 g/m*3 3.2 C 0 km/h
402 12-10-2010 08:24:02 3.6 C 5.57 g/m*3 3.6 C 0 km/h
403 12-10-2010 08:36:02 4 C 5.72 g/m*3 4 C 0 km/h
404 12-10-2010 08:48:02 4.3 C 5.84 g/m*3 4.3 C 0 km/h
405 12-10-2010 09:00:02 4.5 C 5.85 g/m*3 4.5 C 0 km/h
406 12-10-2010 09:12:02 4.7 C 5.93 g/m*3 4.7 C 0 km/h
407 12-10-2010 09:24:02 4.8 C 5.9 g/m*3 4.8 C 0 km/h
408 12-10-2010 09:36:02 5.2 C 5.99 g/m*3 5.2 C 0 km/h
409 12-10-2010 09:48:02 5.3 C 5.96 g/m*3 5.3 C 0 km/h
410 12-10-2010 10:00:02 5.3 C 5.89 g/m*3 5.3 C 0 km/h
411 12-10-2010 10:12:02 5.6 C 6.01 g/m*3 5.6 C 0 km/h
412 12-10-2010 10:24:02 5.7 C 6.05 g/m*3 5.7 C 0 km/h
413 12-10-2010 10:36:02 6 C 6.1 g/m*3 6 C 0 km/h
414 12-10-2010 10:48:02 6.5 C 6.3 g/m*3 6.5 C 0 km/h
415 12-10-2010 11:00:02 6.5 C 6.3 g/m*3 6.5 C 0 km/h
416 12-10-2010 11:12:02 6.6 C 6.34 g/m*3 6.6 C 0 km/h
417 12-10-2010 11:24:02 7 C 6.43 g/m*3 7 C 0 km/h
418 12-10-2010 11:36:02 7.7 C 6.41 g/m*3 7.7 C 0 km/h
419 12-10-2010 11:48:02 8 C 6.28 g/m*3 8 C 0 km/h
420 12-10-2010 12:00:02 8.4 C 6.28 g/m*3 8.4 C 0 km/h
421 12-10-2010 12:12:02 9 C 6.17 g/m*3 9 C 0 km/h
422 12-10-2010 12:24:02 9.6 C 6.14 g/m*3 9.6 C 0 km/h
423 12-10-2010 12:36:02 10.2 C 6.09 g/m*3 10.2 C 0 km/h
424 12-10-2010 12:48:02 10.6 C 6.15 g/m*3 10.6 C 0 km/h
425 12-10-2010 13:00:02 11.5 C 5.78 g/m*3 11.5 C 0 km/h
Sensor: Nr:Datum:Temp:Abs-Feuchte:Windchill:Wind:
Aussen-T/F 426 12-10-2010 13:12:01 12.2 C 5.5 g/m*3 12.2 C 0 km/h
427 12-10-2010 13:24:02 12.7 C 5.79 g/m*3 12.7 C 0 km/h
428 12-10-2010 13:36:02 13 C 5.78 g/m*3 13 C 0 km/h
429 12-10-2010 13:48:02 13.5 C 5.73 g/m*3 13.5 C 0 km/h
430 12-10-2010 14:00:02 14.1 C 5.83 g/m*3 14.1 C 0 km/h
431 12-10-2010 14:12:03 15 C 5.39 g/m*3 15 C 0 km/h
432 12-10-2010 14:24:02 15.4 C 5.65 g/m*3 15.4 C 0 km/h
433 12-10-2010 14:36:02 15.6 C 5.72 g/m*3 15.6 C 0 km/h
434 12-10-2010 14:48:01 16.2 C 5.65 g/m*3 16.2 C 0 km/h
435 12-10-2010 15:00:01 16.4 C 5.58 g/m*3 16.4 C 0 km/h
436 12-10-2010 15:12:02 17 C 5.5 g/m*3 17 C 0 km/h
437 12-10-2010 15:24:01 16.8 C 5.29 g/m*3 16.8 C 0 km/h
438 12-10-2010 15:36:01 17.2 C 5.42 g/m*3 17.2 C 0 km/h
439 12-10-2010 15:48:01 17.3 C 5.3 g/m*3 17.3 C 0 km/h
440 12-10-2010 16:00:01 17.5 C 5.52 g/m*3 17.5 C 0 km/h
441 12-10-2010 16:12:02 17.8 C 5.31 g/m*3 17.8 C 0 km/h
442 12-10-2010 16:24:02 17.4 C 5.48 g/m*3 17.4 C 0 km/h
443 12-10-2010 16:36:01 17.7 C 5.43 g/m*3 17.7 C 0 km/h
444 12-10-2010 16:48:02 17.9 C 5.34 g/m*3 17.9 C 0 km/h
445 12-10-2010 17:00:02 17.9 C 4.89 g/m*3 17.9 C 0 km/h
446 12-10-2010 17:12:01 17.8 C 4.86 g/m*3 17.8 C 0 km/h
447 12-10-2010 17:24:02 17.4 C 4.45 g/m*3 17.4 C 0 km/h
448 12-10-2010 17:36:01 16.6 C 4.24 g/m*3 16.6 C 0 km/h
449 12-10-2010 17:48:02 16.4 C 4.47 g/m*3 16.4 C 0 km/h
450 12-10-2010 18:00:02 16 C 4.9 g/m*3 16 C 0 km/h
Sensor: Nr:Datum:Temp:Abs-Feuchte:Windchill:Wind:
Aussen-T/F 451 12-10-2010 18:12:02 15.4 C 5.39 g/m*3 15.4 C 0 km/h
452 12-10-2010 18:24:02 14.4 C 5.69 g/m*3 14.4 C 0 km/h
453 12-10-2010 18:36:03 13.7 C 5.92 g/m*3 13.7 C 0 km/h
454 12-10-2010 18:48:02 13 C 6.12 g/m*3 13 C 0 km/h
455 12-10-2010 19:00:02 12.3 C 6.3 g/m*3 12.3 C 0 km/h
456 12-10-2010 19:12:02 11.8 C 6.42 g/m*3 11.8 C 0 km/h
457 12-10-2010 19:24:02 11.3 C 6.43 g/m*3 11.3 C 0 km/h
458 12-10-2010 19:36:02 10.9 C 6.56 g/m*3 10.9 C 0 km/h
459 12-10-2010 19:48:02 10.8 C 6.52 g/m*3 10.8 C 0 km/h
460 12-10-2010 20:00:02 10.4 C 6.46 g/m*3 10.4 C 0 km/h
461 12-10-2010 20:12:01 10.1 C 6.43 g/m*3 10.1 C 0 km/h
462 12-10-2010 20:24:02 9.9 C 6.54 g/m*3 9.9 C 0 km/h
463 12-10-2010 20:36:01 9.5 C 6.46 g/m*3 9.5 C 0 km/h
464 12-10-2010 20:48:02 9.3 C 6.47 g/m*3 9.3 C 0 km/h
465 12-10-2010 21:00:02 8.9 C 6.39 g/m*3 8.9 C 0 km/h
466 12-10-2010 21:12:02 8.6 C 6.27 g/m*3 8.6 C 0 km/h
467 12-10-2010 21:24:02 8.3 C 6.24 g/m*3 8.3 C 0 km/h
468 12-10-2010 21:36:02 8.1 C 6.16 g/m*3 8.1 C 0 km/h
469 12-10-2010 21:48:02 7.9 C 6.24 g/m*3 7.9 C 0 km/h
470 12-10-2010 22:00:02 7.7 C 6.16 g/m*3 7.7 C 0 km/h
471 12-10-2010 22:12:01 7.5 C 6.08 g/m*3 7.5 C 0 km/h
472 12-10-2010 22:25:03 7.6 C 6.2 g/m*3 7.6 C 0 km/h
473 12-10-2010 22:37:03 7.9 C 6.24 g/m*3 7.9 C 0 km/h
474 12-10-2010 22:49:03 8 C 6.04 g/m*3 8 C 0 km/h
475 12-10-2010 23:01:03 7.9 C 6 g/m*3 7.9 C 0 km/h
Sensor: Nr:Datum:Temp:Abs-Feuchte:Windchill:Wind:
Aussen-T/F 476 12-10-2010 23:13:03 7.7 C 5.92 g/m*3 7.7 C 0 km/h
477 12-10-2010 23:25:03 7.8 C 6.04 g/m*3 7.8 C 0 km/h
478 12-10-2010 23:37:03 7.8 C 6.04 g/m*3 7.8 C 0 km/h
479 12-10-2010 23:49:03 7.7 C 6 g/m*3 7.7 C 0 km/h
480 13-10-2010 00:01:03 7.7 C 5.92 g/m*3 7.7 C 0 km/h
481 13-10-2010 00:13:03 7.7 C 5.92 g/m*3 7.7 C 0 km/h
482 13-10-2010 00:25:03 7.9 C 5.91 g/m*3 7.9 C 0 km/h
483 13-10-2010 00:37:03 7.4 C 5.81 g/m*3 7.4 C 0 km/h
484 13-10-2010 00:49:03 7.3 C 5.77 g/m*3 7.3 C 0 km/h
485 13-10-2010 01:01:03 7.3 C 5.85 g/m*3 7.3 C 0 km/h
486 13-10-2010 01:13:03 7.3 C 5.85 g/m*3 7.3 C 0 km/h
487 13-10-2010 01:25:04 7 C 5.73 g/m*3 7 C 0 km/h
488 13-10-2010 01:37:04 6.8 C 5.81 g/m*3 6.8 C 0 km/h
489 13-10-2010 01:49:04 6.7 C 5.85 g/m*3 6.7 C 0 km/h
490 13-10-2010 02:01:04 6.9 C 5.93 g/m*3 6.9 C 0 km/h
491 13-10-2010 02:13:04 6.9 C 5.85 g/m*3 6.9 C 0 km/h
492 13-10-2010 02:25:04 6.8 C 5.81 g/m*3 6.8 C 0 km/h
493 13-10-2010 02:37:04 6.9 C 5.85 g/m*3 6.9 C 0 km/h
494 13-10-2010 02:49:04 6.5 C 5.7 g/m*3 6.5 C 0 km/h
495 13-10-2010 03:01:04 6.4 C 5.74 g/m*3 6.4 C 0 km/h
496 13-10-2010 03:13:04 6.4 C 5.74 g/m*3 6.4 C 0 km/h
497 13-10-2010 03:25:04 6.5 C 5.7 g/m*3 6.5 C 0 km/h
498 13-10-2010 03:37:04 6.5 C 5.7 g/m*3 6.5 C 0 km/h
499 13-10-2010 03:49:04 6.4 C 5.59 g/m*3 6.4 C 0 km/h
500 13-10-2010 04:01:04 6.2 C 5.52 g/m*3 6.2 C 0 km/h
Sensor: Nr:Datum:Temp:Abs-Feuchte:Windchill:Wind:
Aussen-T/F 501 13-10-2010 04:13:04 6.1 C 5.55 g/m*3 6.1 C 0 km/h
502 13-10-2010 04:25:04 6.2 C 5.66 g/m*3 6.2 C 0 km/h
503 13-10-2010 04:37:04 6.2 C 5.59 g/m*3 6.2 C 0 km/h
504 13-10-2010 04:49:04 6.3 C 5.63 g/m*3 6.3 C 0 km/h
505 13-10-2010 05:01:04 6.3 C 5.63 g/m*3 6.3 C 0 km/h
506 13-10-2010 05:13:04 6.2 C 5.59 g/m*3 6.2 C 0 km/h
507 13-10-2010 05:25:04 6.1 C 5.55 g/m*3 6.1 C 0 km/h
508 13-10-2010 05:37:05 6 C 5.59 g/m*3 6 C 0 km/h
509 13-10-2010 05:49:05 5.9 C 5.62 g/m*3 5.9 C 0 km/h
510 13-10-2010 06:01:05 6 C 5.66 g/m*3 6 C 0 km/h
511 13-10-2010 06:13:05 6 C 5.59 g/m*3 6 C 0 km/h
512 13-10-2010 06:25:05 5.8 C 5.59 g/m*3 5.8 C 0 km/h
513 13-10-2010 06:37:05 5.8 C 5.59 g/m*3 5.8 C 0 km/h
514 13-10-2010 06:49:02 5.6 C 5.59 g/m*3 5.6 C 0 km/h
515 13-10-2010 07:01:02 5.5 C 5.55 g/m*3 5.5 C 0 km/h
516 13-10-2010 07:13:02 5.4 C 5.51 g/m*3 5.4 C 0 km/h
517 13-10-2010 07:25:02 5.2 C 5.44 g/m*3 5.2 C 0 km/h
518 13-10-2010 07:37:02 5.4 C 5.58 g/m*3 5.4 C 0 km/h
519 13-10-2010 07:49:01 5.6 C 5.59 g/m*3 5.6 C 0 km/h
520 13-10-2010 08:01:02 5.7 C 5.55 g/m*3 5.7 C 0 km/h
521 13-10-2010 08:13:02 5.6 C 5.51 g/m*3 5.6 C 0 km/h
522 13-10-2010 08:25:02 5.6 C 5.51 g/m*3 5.6 C 0 km/h
523 13-10-2010 08:37:01 5.6 C 5.44 g/m*3 5.6 C 0 km/h
524 13-10-2010 08:49:02 5.6 C 5.44 g/m*3 5.6 C 0 km/h
525 13-10-2010 09:01:02 5.7 C 5.48 g/m*3 5.7 C 0 km/h
Sensor: Nr:Datum:Temp:Abs-Feuchte:Windchill:Wind:
Aussen-T/F 526 13-10-2010 09:13:02 5.7 C 5.48 g/m*3 5.7 C 0 km/h
527 13-10-2010 09:25:02 5.8 C 5.44 g/m*3 5.8 C 0 km/h
528 13-10-2010 09:37:03 6 C 5.44 g/m*3 6 C 0 km/h
529 13-10-2010 09:49:02 6.1 C 5.41 g/m*3 6.1 C 0 km/h
530 13-10-2010 10:01:02 6.4 C 5.44 g/m*3 6.4 C 0 km/h
531 13-10-2010 10:13:02 6.6 C 5.36 g/m*3 6.6 C 0 km/h
532 13-10-2010 10:25:01 6.7 C 5.32 g/m*3 6.7 C 0 km/h
533 13-10-2010 10:37:02 6.8 C 5.2 g/m*3 6.8 C 0 km/h
534 13-10-2010 10:49:02 6.8 C 5.2 g/m*3 6.8 C 0 km/h
535 13-10-2010 11:01:02 7 C 5.11 g/m*3 7 C 0 km/h
536 13-10-2010 11:13:02 7 C 5.04 g/m*3 7 C 0 km/h
537 13-10-2010 11:25:02 6.8 C 5.05 g/m*3 6.8 C 0 km/h
538 13-10-2010 11:37:02 7.1 C 5.15 g/m*3 7.1 C 0 km/h
539 13-10-2010 11:49:02 7.3 C 5.06 g/m*3 7.3 C 0 km/h
540 13-10-2010 12:01:02 7.7 C 5.11 g/m*3 7.7 C 0 km/h
541 13-10-2010 12:13:02 7.9 C 5.01 g/m*3 7.9 C 0 km/h
542 13-10-2010 12:25:02 8 C 5.04 g/m*3 8 C 0 km/h
543 13-10-2010 12:37:02 8.4 C 5.01 g/m*3 8.4 C 0 km/h
544 13-10-2010 12:49:02 8.7 C 5.1 g/m*3 8.7 C 0 km/h
545 13-10-2010 13:01:02 9 C 4.94 g/m*3 9 C 0 km/h
546 13-10-2010 13:13:02 8.8 C 4.87 g/m*3 8.8 C 0 km/h
547 13-10-2010 13:25:02 9 C 4.94 g/m*3 9 C 0 km/h
548 13-10-2010 13:37:02 8.5 C 4.87 g/m*3 8.5 C 0 km/h
549 13-10-2010 13:49:02 8.7 C 4.84 g/m*3 8.7 C 0 km/h
550 13-10-2010 14:01:02 9.6 C 5.13 g/m*3 9.6 C 0 km/h
Sensor: Nr:Datum:Temp:Abs-Feuchte:Windchill:Wind:
Aussen-T/F 551 13-10-2010 14:13:02 9.4 C 4.79 g/m*3 9.4 C 0 km/h
552 13-10-2010 14:25:02 9.6 C 4.86 g/m*3 9.6 C 0 km/h
553 13-10-2010 14:37:01 9.7 C 4.98 g/m*3 9.7 C 0 km/h
554 13-10-2010 14:49:02 10.7 C 5.01 g/m*3 10.7 C 0 km/h
555 13-10-2010 15:01:01 11.3 C 5 g/m*3 11.3 C 0 km/h
556 13-10-2010 15:13:01 11.2 C 4.87 g/m*3 11.2 C 0 km/h
557 13-10-2010 15:25:01 11.9 C 5.08 g/m*3 11.9 C 0 km/h
558 13-10-2010 15:37:02 12 C 4.8 g/m*3 12 C 0 km/h
559 13-10-2010 15:49:02 12.5 C 4.95 g/m*3 12.5 C 0 km/h
560 13-10-2010 16:01:02 12.1 C 4.93 g/m*3 12.1 C 0 km/h
561 13-10-2010 16:13:02 11.9 C 4.98 g/m*3 11.9 C 0 km/h
562 13-10-2010 16:25:01 12.1 C 4.93 g/m*3 12.1 C 0 km/h
563 13-10-2010 16:37:02 11.8 C 5.05 g/m*3 11.8 C 0 km/h
564 13-10-2010 16:49:02 12.4 C 5.14 g/m*3 12.4 C 0 km/h
565 13-10-2010 17:01:02 12.3 C 4.99 g/m*3 12.3 C 0 km/h
566 13-10-2010 17:13:02 12.2 C 5.07 g/m*3 12.2 C 0 km/h
567 13-10-2010 17:25:01 12.5 C 5.39 g/m*3 12.5 C 0 km/h
568 13-10-2010 17:37:02 12.5 C 5.28 g/m*3 12.5 C 0 km/h
569 13-10-2010 17:49:01 12.2 C 5.4 g/m*3 12.2 C 0 km/h
570 13-10-2010 18:01:02 11.6 C 5.4 g/m*3 11.6 C 0 km/h
571 13-10-2010 18:13:02 10.9 C 5.47 g/m*3 10.9 C 0 km/h
572 13-10-2010 18:25:02 9.8 C 5.47 g/m*3 9.8 C 0 km/h
573 13-10-2010 18:37:02 9 C 5.47 g/m*3 9 C 0 km/h
574 13-10-2010 18:49:02 8.4 C 5.6 g/m*3 8.4 C 0 km/h
575 13-10-2010 19:01:01 7.9 C 5.67 g/m*3 7.9 C 0 km/h
Sensor: Nr:Datum:Temp:Abs-Feuchte:Windchill:Wind:
Aussen-T/F 576 13-10-2010 19:13:01 7.6 C 5.72 g/m*3 7.6 C 0 km/h
577 13-10-2010 19:25:02 7.4 C 5.73 g/m*3 7.4 C 0 km/h
578 13-10-2010 19:37:01 7.3 C 5.85 g/m*3 7.3 C 0 km/h
579 13-10-2010 19:49:02 7.2 C 5.81 g/m*3 7.2 C 0 km/h
580 13-10-2010 20:01:02 7.3 C 5.85 g/m*3 7.3 C 0 km/h
581 13-10-2010 20:13:02 7 C 5.73 g/m*3 7 C 0 km/h
582 13-10-2010 20:25:02 7 C 5.81 g/m*3 7 C 0 km/h
583 13-10-2010 20:37:03 6.9 C 5.85 g/m*3 6.9 C 0 km/h
584 13-10-2010 20:49:02 6.6 C 5.81 g/m*3 6.6 C 0 km/h
585 13-10-2010 21:01:02 6.3 C 5.77 g/m*3 6.3 C 0 km/h
586 13-10-2010 21:13:02 6 C 5.73 g/m*3 6 C 0 km/h
587 13-10-2010 21:25:01 5.8 C 5.73 g/m*3 5.8 C 0 km/h
588 13-10-2010 21:37:02 5.6 C 5.73 g/m*3 5.6 C 0 km/h
589 13-10-2010 21:49:02 5.4 C 5.65 g/m*3 5.4 C 0 km/h
590 13-10-2010 22:02:03 5.4 C 5.72 g/m*3 5.4 C 0 km/h
591 13-10-2010 22:14:03 5.3 C 5.75 g/m*3 5.3 C 0 km/h
592 13-10-2010 22:26:03 5.2 C 5.71 g/m*3 5.2 C 0 km/h
593 13-10-2010 22:38:03 5.1 C 5.75 g/m*3 5.1 C 0 km/h
594 13-10-2010 22:50:03 4.8 C 5.7 g/m*3 4.8 C 0 km/h
595 13-10-2010 23:02:03 4.7 C 5.66 g/m*3 4.7 C 0 km/h
596 13-10-2010 23:14:03 4.6 C 5.62 g/m*3 4.6 C 0 km/h
597 13-10-2010 23:26:03 4.6 C 5.62 g/m*3 4.6 C 0 km/h
598 13-10-2010 23:38:03 4.5 C 5.59 g/m*3 4.5 C 0 km/h
599 13-10-2010 23:50:03 4.2 C 5.54 g/m*3 4.2 C 0 km/h

Legende:
   Min
   Max


Maximal/Minimal-Werte vom 09.10.2010 - 13.10.2010

Sensor Min Max Avg
Temp
(Aussen-T/F)
2.6 °C
12-10-2010  07:48:01
22.4 °C
09-10-2010  16:09:01
10.37 °C
Abs-Feuchte
(Aussen-T/F)
3.36 g/m*3
11-10-2010  17:35:01
9.68 g/m*3
09-10-2010  11:33:02
5.97 g/m*3
Windchill
(Aussen-T/F)
2.6 C
12-10-2010  07:48:01
22.4 C
09-10-2010  16:09:01
10.35 C

Die Daten stammen von einer Davis Vantage Pro 2 Wetter-Station und werden unter Linux mit der Software wview2wettercgi und aufbereitet. Alle Angaben erfolgen ohne Gewähr für ihre Vollständigkeit oder Richtigkeit.
Kontakt: Rainer Krienke krienke@uni-koblenz.de . Meine Webseiten an der Uni Koblenz oder privat.
Version: $Revision: 0.78 $